Location: Ellingshausen
(50.5460°N, 10.4723°E)
Time: 22:58:41
(UTC+00:00)

FengYun 1-2 T - Pass Details

Date: 18 January 2026
Orbit: 844 x 880 km, 98.8° (Epoch: 9 February)

Event Time Altitude Azimuth Distance (km) Brightness Sun altitude
Rises 04:55:21 0° 11° (N) 3,461 7.4 -20.9°
Reaches altitude 10° 04:57:49 10° 6° (N) 2,514 6.6 -20.5°
Maximum altitude 05:03:07 46° 295° (WNW) 1,141 4.4 -19.7°
Enters shadow 05:06:42 20° 231° (SW) 1,895 5.7 -19.1°
